Date String (YYYY-MM-DD hh:mm:ss) UTC,Instrument flags,absolute air pressure of the measurement (hPa),sample flow rate (lpm),inlet stack bypass flow (lpm),air temperature of the measurement (°C),ambient temperature measured by the external sensor (°C),aerosol sample conditioner tube jacket temperature (°C),OPC LED temperature (°C),internal box temperature (°C),relative humidity of the measurement (%),span deviation,mass concentration of particles derived from Lorenz-Mie calculation of OPC scattering (μg/m³),mass concentration of particles derived from Lorenz-Mie calculation of OPC scattering (μg/m³),mass concentration of particles derived from Lorenz-Mie calculation of OPC scattering (μg/m³)
DateTimeUTC,F1_M11,P_M11,Q1_M11,Q2_M11,T1_M11,T2_M11,T3_M11,T4_M11,T5_M11,U1_M11,ZSPAN_M11,X0_M11,X2_M11,X1_M11
2023-12-17 08:00:00,SystemResetWarning,0830.2,5.00,000.00,024.4,023.4,000.0,032.6,025.7,7.2,0000.0,0000.66,0000.40,0000.33
2023-12-17 08:01:00,SystemResetWarning,0830.2,5.00,000.00,024.4,023.4,000.0,032.6,025.7,7.2,0000.0,0000.64,0000.39,0000.32
2023-12-17 08:02:00,SystemResetWarning,0830.2,5.01,000.00,024.4,023.4,000.0,032.6,025.7,7.2,0000.0,0000.54,0000.38,0000.32
2023-12-17 08:03:00,SystemResetWarning,0830.2,4.99,000.00,024.4,023.3,000.0,032.6,025.7,7.2,0000.0,0000.54,0000.39,0000.32
2023-12-17 08:04:00,SystemResetWarning,0830.1,4.99,000.00,024.4,023.3,000.0,032.6,025.7,7.1,0000.0,0000.56,0000.40,0000.32
2023-12-17 08:05:00,SystemResetWarning,0830.2,5.00,000.00,024.4,023.3,000.0,032.6,025.7,7.0,0000.0,0000.54,0000.40,0000.32
2023-12-17 08:06:00,SystemResetWarning,0830.2,5.01,000.00,024.4,023.3,000.0,032.6,025.7,7.1,0000.0,0000.53,0000.38,0000.33
2023-12-17 08:07:00,SystemResetWarning,0830.2,5.00,000.00,024.4,023.3,000.0,032.7,025.7,7.1,0000.0,0000.63,0000.38,0000.32
2023-12-17 08:08:00,SystemResetWarning,0830.2,5.00,000.00,024.4,023.3,000.0,032.7,025.7,7.2,0000.0,0000.66,0000.39,0000.31
2023-12-17 08:09:00,SystemResetWarning,0830.3,4.99,000.00,024.4,023.4,000.0,032.7,025.7,7.4,0000.0,0000.65,0000.38,0000.31
2023-12-17 08:10:00,SystemResetWarning,0830.2,5.00,000.00,024.4,023.4,000.0,032.6,025.7,7.4,0000.0,0000.64,0000.37,0000.30
2023-12-17 08:11:00,SystemResetWarning,0830.2,5.01,000.00,024.4,023.4,000.0,032.6,025.6,7.4,0000.0,0000.63,0000.36,0000.29
2023-12-17 08:12:00,SystemResetWarning,0830.3,5.01,000.00,024.4,023.4,000.0,032.6,025.6,7.2,0000.0,0000.64,0000.37,0000.29
2023-12-17 08:13:00,SystemResetWarning,0830.3,4.98,000.00,024.4,023.3,000.0,032.6,025.7,7.2,0000.0,0000.72,0000.39,0000.29
2023-12-17 08:14:00,SystemResetWarning,0830.3,5.00,000.00,024.4,023.3,000.0,032.6,025.7,7.0,0000.0,0000.70,0000.39,0000.29
2023-12-17 08:15:00,SystemResetWarning,0830.3,5.00,000.00,024.4,023.4,000.0,032.6,025.7,6.8,0000.0,0000.69,0000.38,0000.29
2023-12-17 08:16:00,SystemResetWarning,0830.3,5.01,000.00,024.4,023.4,000.0,032.6,025.7,6.7,0000.0,0000.73,0000.39,0000.29
2023-12-17 08:17:00,SystemResetWarning,0830.3,5.00,000.00,024.4,023.3,000.0,032.6,025.6,7.1,0000.0,0000.76,0000.40,0000.28
2023-12-17 08:18:00,SystemResetWarning,0830.4,5.01,000.00,024.4,023.3,000.0,032.6,025.6,7.0,0000.0,0000.68,0000.40,0000.29
2023-12-17 08:19:00,SystemResetWarning,0830.4,5.00,000.00,024.3,023.3,000.0,032.6,025.7,6.9,0000.0,0000.61,0000.39,0000.29
2023-12-17 08:20:00,SystemResetWarning,0830.4,4.99,000.00,024.4,023.3,000.0,032.6,025.6,6.9,0000.0,0000.63,0000.39,0000.28
2023-12-17 08:21:00,SystemResetWarning,0830.4,4.99,000.00,024.3,023.3,000.0,032.6,025.6,6.6,0000.0,0000.65,0000.40,0000.29
2023-12-17 08:22:00,SystemResetWarning,0830.5,4.99,000.00,024.3,023.3,000.0,032.6,025.6,6.7,0000.0,0000.65,0000.40,0000.29
2023-12-17 08:23:00,SystemResetWarning,0830.6,5.01,000.00,024.3,023.3,000.0,032.6,025.5,6.6,0000.0,0000.67,0000.40,0000.28
2023-12-17 08:24:00,SystemResetWarning,0830.4,5.01,000.00,024.3,023.3,000.0,032.6,025.5,6.6,0000.0,0000.58,0000.37,0000.28
2023-12-17 08:25:00,SystemResetWarning,0830.4,5.00,000.00,024.3,023.3,000.0,032.6,025.5,6.8,0000.0,0000.57,0000.36,0000.27
2023-12-17 08:26:00,SystemResetWarning,0830.4,5.00,000.00,024.3,023.2,000.0,032.6,025.5,6.8,0000.0,0000.59,0000.36,0000.26
2023-12-17 08:27:00,SystemResetWarning,0830.7,4.99,000.00,024.3,023.2,000.0,032.6,025.5,6.9,0000.0,0000.52,0000.33,0000.25
2023-12-17 08:28:00,SystemResetWarning,0830.5,4.99,000.00,024.3,023.2,000.0,032.6,025.5,7.0,0000.0,0000.46,0000.31,0000.24
2023-12-17 08:29:00,SystemResetWarning,0830.4,5.02,000.00,024.3,023.2,000.0,032.6,025.5,6.8,0000.0,0000.45,0000.30,0000.24
2023-12-17 08:30:00,SystemResetWarning,0830.6,4.99,000.00,024.3,023.2,000.0,032.6,025.5,7.0,0000.0,0000.44,0000.29,0000.24
2023-12-17 08:31:00,SystemResetWarning,0830.5,4.99,000.00,024.2,023.2,000.0,032.6,025.5,7.1,0000.0,0000.46,0000.30,0000.24
2023-12-17 08:32:00,SystemResetWarning,0830.4,4.99,000.00,024.2,023.2,000.0,032.6,025.5,6.9,0000.0,0000.42,0000.28,0000.23
2023-12-17 08:33:00,SystemResetWarning,0830.4,5.00,000.00,024.2,023.1,000.0,032.6,025.5,6.3,0000.0,0000.46,0000.29,0000.23
2023-12-17 08:34:00,SystemResetWarning,0830.4,5.01,000.00,024.2,023.1,000.0,032.6,025.5,6.3,0000.0,0000.44,0000.29,0000.24
2023-12-17 08:35:00,SystemResetWarning,0830.7,5.01,000.00,024.2,023.1,000.0,032.5,025.5,6.4,0000.0,0000.43,0000.28,0000.23
2023-12-17 08:36:00,SystemResetWarning,0830.5,4.99,000.00,024.2,023.1,000.0,032.5,025.5,6.6,0000.0,0000.44,0000.29,0000.24
2023-12-17 08:37:00,SystemResetWarning,0830.4,4.99,000.00,024.2,023.1,000.0,032.5,025.5,6.7,0000.0,0000.42,0000.29,0000.24
2023-12-17 08:38:00,SystemResetWarning,0830.4,5.01,000.00,024.2,023.1,000.0,032.5,025.5,7.1,0000.0,0000.46,0000.30,0000.24
2023-12-17 08:39:00,SystemResetWarning,0830.6,5.01,000.00,024.2,023.0,000.0,032.5,025.5,7.0,0000.0,0000.47,0000.30,0000.24
2023-12-17 08:40:00,SystemResetWarning,0830.5,5.00,000.00,024.2,023.0,000.0,032.5,025.5,6.7,0000.0,0000.47,0000.30,0000.24
2023-12-17 08:41:00,SystemResetWarning,0830.7,4.99,000.00,024.2,023.1,000.0,032.5,025.5,6.6,0000.0,0000.45,0000.30,0000.23
2023-12-17 08:42:00,SystemResetWarning,0830.6,5.00,000.00,024.2,023.0,000.0,032.5,025.5,6.4,0000.0,0000.42,0000.29,0000.23
2023-12-17 08:43:00,SystemResetWarning,0830.6,4.99,000.00,024.2,023.0,000.0,032.5,025.5,6.5,0000.0,0000.43,0000.30,0000.23
2023-12-17 08:44:00,SystemResetWarning,0830.7,4.99,000.00,024.1,023.0,000.0,032.5,025.4,6.7,0000.0,0000.39,0000.29,0000.23
2023-12-17 08:45:00,SystemResetWarning,0830.7,5.00,000.00,024.1,023.0,000.0,032.5,025.4,6.7,0000.0,0000.38,0000.28,0000.23
2023-12-17 08:46:00,SystemResetWarning,0830.7,5.02,000.00,024.1,023.0,000.0,032.5,025.4,7.0,0000.0,0000.39,0000.29,0000.23
2023-12-17 08:47:00,SystemResetWarning,0830.7,4.99,000.00,024.1,023.0,000.0,032.5,025.5,6.9,0000.0,0000.38,0000.28,0000.23
2023-12-17 08:48:00,SystemResetWarning,0830.7,4.99,000.00,024.1,023.0,000.0,032.5,025.5,6.8,0000.0,0000.36,0000.28,0000.23
2023-12-17 08:49:00,SystemResetWarning,0830.7,5.01,000.00,024.1,023.0,000.0,032.5,025.5,6.8,0000.0,0000.34,0000.27,0000.24
2023-12-17 08:50:00,SystemResetWarning,0830.8,5.00,000.00,024.1,023.0,000.0,032.5,025.5,6.7,0000.0,0000.33,0000.28,0000.24
2023-12-17 08:51:00,SystemResetWarning,0830.8,5.00,000.00,024.1,023.0,000.0,032.4,025.5,6.8,0000.0,0000.34,0000.28,0000.25
2023-12-17 08:52:00,SystemResetWarning,0830.8,4.99,000.00,024.1,023.0,000.0,032.4,025.4,6.8,0000.0,0000.35,0000.28,0000.25
2023-12-17 08:53:00,SystemResetWarning,0830.8,5.00,000.00,024.1,023.0,000.0,032.4,025.5,6.7,0000.0,0000.34,0000.28,0000.25
2023-12-17 08:54:00,SystemResetWarning,0830.8,5.00,000.00,024.1,023.0,000.0,032.4,025.5,6.9,0000.0,0000.33,0000.27,0000.25
2023-12-17 08:55:00,SystemResetWarning,0830.8,4.99,000.00,024.1,023.0,000.0,032.4,025.5,6.8,0000.0,0000.35,0000.28,0000.26
2023-12-17 08:56:00,SystemResetWarning,0830.8,5.00,000.00,024.1,023.0,000.0,032.4,025.5,6.7,0000.0,0000.35,0000.28,0000.27
2023-12-17 08:57:00,SystemResetWarning,0830.8,5.00,000.00,024.1,023.0,000.0,032.4,025.5,6.8,0000.0,0000.34,0000.28,0000.27
2023-12-17 08:58:00,SystemResetWarning,0830.8,5.00,000.00,024.1,023.0,000.0,032.4,025.5,6.9,0000.0,0000.36,0000.29,0000.27
2023-12-17 08:59:00,SystemResetWarning,0830.8,4.99,000.00,024.1,023.0,000.0,032.4,025.5,7.1,0000.0,0000.35,0000.28,0000.26
